| time (UTC) | temp F | wind direction | speed knots | gust knots | rain 1hr in | rain 24hr in | rain mn in | humidity % | barometer mb |
| 20260505200315 | 58 | 225 | 3.5 | 0.0 | 0.00 | 0.00 | 0.00 | 50 | 1006.4 |
| 20260505200107 | 58 | 225 | 5.2 | 0.0 | 0.00 | 0.00 | 0.00 | 50 | 1006.5 |
| 20260505195911 | 58 | 248 | 5.2 | 0.0 | 0.00 | 0.00 | 0.00 | 52 | 1006.4 |
| 20260505195713 | 58 | 248 | 1.7 | 0.0 | 0.00 | 0.00 | 0.00 | 51 | 1006.4 |
| 20260505195509 | 57 | 248 | 1.7 | 0.0 | 0.00 | 0.00 | 0.00 | 51 | 1006.4 |
| 20260505195313 | 57 | 248 | 3.5 | 0.0 | 0.00 | 0.00 | 0.00 | 52 | 1006.4 |
| 20260505195111 | 58 | 225 | 5.2 | 0.0 | 0.00 | 0.00 | 0.00 | 52 | 1006.4 |
| 20260505194908 | 58 | 248 | 0.0 | 0.0 | 0.00 | 0.00 | 0.00 | 51 | 1006.4 |
| 20260505194708 | 58 | 292 | 0.0 | 0.0 | 0.00 | 0.00 | 0.00 | 51 | 1006.4 |
| 20260505194509 | 59 | 270 | 0.0 | 0.0 | 0.00 | 0.00 | 0.00 | 50 | 1006.3 |
| 20260505194411 | 59 | 270 | 0.0 | 0.0 | 0.00 | 0.00 | 0.00 | 50 | 1006.3 |
| 20260505194210 | 59 | 270 | 0.0 | 0.0 | 0.00 | 0.00 | 0.00 | 49 | 1006.4 |
| 20260505194009 | 59 | 225 | 7.8 | 0.0 | 0.00 | 0.00 | 0.00 | 47 | 1006.3 |
| 20260505193808 | 60 | 270 | 0.0 | 0.0 | 0.00 | 0.00 | 0.00 | 49 | 1006.3 |
| 20260505193613 | 60 | 270 | 0.0 | 0.0 | 0.00 | 0.00 | 0.00 | 48 | 1006.3 |
| 20260505193413 | 60 | 248 | 0.0 | 0.0 | 0.00 | 0.00 | 0.00 | 47 | 1006.3 |
| 20260505193210 | 60 | 248 | 5.2 | 0.0 | 0.00 | 0.00 | 0.00 | 47 | 1006.2 |
| 20260505193012 | 60 | 248 | 4.3 | 0.0 | 0.00 | 0.00 | 0.00 | 48 | 1006.2 |
| 20260505192810 | 60 | 248 | 3.5 | 0.0 | 0.00 | 0.00 | 0.00 | 48 | 1006.2 |
| 20260505192610 | 60 | 248 | 3.5 | 0.0 | 0.00 | 0.00 | 0.00 | 48 | 1006.1 |
| 20260505192414 | 59 | 248 | 1.7 | 0.0 | 0.00 | 0.00 | 0.00 | 48 | 1006.0 |
| 20260505192210 | 59 | 225 | 9.6 | 0.0 | 0.00 | 0.00 | 0.00 | 49 | 1005.9 |
| 20260505192012 | 59 | 292 | 5.2 | 0.0 | 0.00 | 0.00 | 0.00 | 49 | 1006.0 |
| 20260505191813 | 59 | 225 | 6.1 | 0.0 | 0.00 | 0.00 | 0.00 | 49 | 1005.8 |
| 20260505191719 | 59 | 248 | 2.6 | 0.0 | 0.00 | 0.00 | 0.00 | 49 | 1005.8 |
| 20260505191414 | 59 | 248 | 7.0 | 0.0 | 0.00 | 0.00 | 0.00 | 50 | 1005.7 |
| 20260505191211 | 60 | 270 | 1.7 | 0.0 | 0.00 | 0.00 | 0.00 | 49 | 1005.8 |
| 20260505191010 | 60 | 248 | 4.3 | 0.0 | 0.00 | 0.00 | 0.00 | 49 | 1005.9 |
| 20260505190808 | 60 | 248 | 2.6 | 0.0 | 0.00 | 0.00 | 0.00 | 48 | 1005.8 |
| 20260505190608 | 59 | 315 | 3.5 | 0.0 | 0.00 | 0.00 | 0.00 | 48 | 1005.8 |
| 20260505190412 | 60 | 248 | 2.6 | 0.0 | 0.00 | 0.00 | 0.00 | 49 | 1005.8 |
| 20260505190107 | 59 | 270 | 0.0 | 0.0 | 0.00 | 0.00 | 0.00 | 49 | 1005.8 |
| 20260505185927 | 59 | 248 | 3.5 | 0.0 | 0.00 | 0.00 | 0.00 | 49 | 1005.7 |
| 20260505185612 | 59 | 248 | 3.5 | 0.0 | 0.00 | 0.00 | 0.00 | 49 | 1005.7 |
| 20260505185409 | 59 | 225 | 7.0 | 0.0 | 0.00 | 0.00 | 0.00 | 50 | 1005.7 |
| 20260505185212 | 59 | 270 | 0.0 | 0.0 | 0.00 | 0.00 | 0.00 | 50 | 1005.7 |
| 20260505185010 | 59 | 248 | 2.6 | 0.0 | 0.00 | 0.00 | 0.00 | 50 | 1005.7 |
| 20260505184912 | 58 | 270 | 5.2 | 0.0 | 0.00 | 0.00 | 0.00 | 51 | 1005.6 |
| 20260505184712 | 58 | 248 | 3.5 | 0.0 | 0.00 | 0.00 | 0.00 | 52 | 1005.5 |
| 20260505184407 | 57 | 248 | 4.3 | 0.0 | 0.00 | 0.00 | 0.00 | 52 | 1005.5 |
| 20260505184207 | 57 | 202 | 3.5 | 0.0 | 0.00 | 0.00 | 0.00 | 55 | 1005.5 |
| 20260505184010 | 57 | 270 | 6.1 | 0.0 | 0.00 | 0.00 | 0.00 | 55 | 1005.4 |
| 20260505183812 | 57 | 270 | 1.7 | 0.0 | 0.00 | 0.00 | 0.00 | 55 | 1005.4 |
| 20260505183611 | 57 | 248 | 3.5 | 0.0 | 0.00 | 0.00 | 0.00 | 55 | 1005.5 |
| 20260505183408 | 57 | 248 | 3.5 | 0.0 | 0.00 | 0.00 | 0.00 | 54 | 1005.4 |
| 20260505183211 | 57 | 270 | 0.0 | 0.0 | 0.00 | 0.00 | 0.00 | 55 | 1005.5 |
| 20260505182910 | 57 | 248 | 4.3 | 0.0 | 0.00 | 0.00 | 0.00 | 55 | 1005.6 |
| 20260505182709 | 58 | 248 | 3.5 | 0.0 | 0.00 | 0.00 | 0.00 | 54 | 1005.5 |
| 20260505182510 | 58 | 270 | 0.0 | 0.0 | 0.00 | 0.00 | 0.00 | 54 | 1005.5 |
| 20260505182310 | 58 | 248 | 2.6 | 0.0 | 0.00 | 0.00 | 0.00 | 54 | 1005.6 |
| 20260505182111 | 58 | 292 | 3.5 | 0.0 | 0.00 | 0.00 | 0.00 | 54 | 1005.5 |
| 20260505181910 | 58 | 248 | 1.7 | 0.0 | 0.00 | 0.00 | 0.00 | 53 | 1005.5 |
| 20260505181713 | 59 | 270 | 0.0 | 0.0 | 0.00 | 0.00 | 0.00 | 53 | 1005.5 |
| 20260505181508 | 59 | 270 | 0.0 | 0.0 | 0.00 | 0.00 | 0.00 | 52 | 1005.6 |
| 20260505181309 | 59 | 338 | 1.7 | 0.0 | 0.00 | 0.00 | 0.00 | 52 | 1005.6 |
| 20260505181112 | 59 | 338 | 1.7 | 0.0 | 0.00 | 0.00 | 0.00 | 52 | 1005.5 |
| 20260505180908 | 58 | 248 | 3.5 | 0.0 | 0.00 | 0.00 | 0.00 | 52 | 1005.5 |
| 20260505180710 | 59 | 248 | 4.3 | 0.0 | 0.00 | 0.00 | 0.00 | 54 | 1005.5 |
| 20260505180608 | 59 | 248 | 3.5 | 0.0 | 0.00 | 0.00 | 0.00 | 54 | 1005.4 |
| 20260505180415 | 59 | 292 | 0.0 | 0.0 | 0.00 | 0.00 | 0.00 | 53 | 1005.5 |
| 20260505180208 | 59 | 248 | 1.7 | 0.0 | 0.00 | 0.00 | 0.00 | 53 | 1005.4 |
| 20260505175927 | 58 | 248 | 5.2 | 0.0 | 0.00 | 0.00 | 0.00 | 54 | 1005.5 |
| 20260505175610 | 58 | 248 | 5.2 | 0.0 | 0.00 | 0.00 | 0.00 | 54 | 1005.4 |
| 20260505175416 | 58 | 270 | 1.7 | 0.0 | 0.00 | 0.00 | 0.00 | 54 | 1005.4 |
| 20260505175316 | 59 | 248 | 1.7 | 0.0 | 0.00 | 0.00 | 0.00 | 54 | 1005.3 |
| 20260505175118 | 59 | 270 | 0.0 | 0.0 | 0.00 | 0.00 | 0.00 | 54 | 1005.4 |
| 20260505174911 | 59 | 270 | 0.0 | 0.0 | 0.00 | 0.00 | 0.00 | 54 | 1005.4 |
| 20260505174713 | 59 | 270 | 0.0 | 0.0 | 0.00 | 0.00 | 0.00 | 54 | 1005.4 |
| 20260505174508 | 59 | 270 | 0.0 | 0.0 | 0.00 | 0.00 | 0.00 | 54 | 1005.3 |
| 20260505174310 | 59 | 248 | 0.0 | 0.0 | 0.00 | 0.00 | 0.00 | 54 | 1005.5 |
| 20260505174110 | 59 | 248 | 0.0 | 0.0 | 0.00 | 0.00 | 0.00 | 54 | 1005.4 |
| 20260505173811 | 58 | 248 | 6.1 | 0.0 | 0.00 | 0.00 | 0.00 | 55 | 1005.4 |
| 20260505173607 | 58 | 248 | 0.9 | 0.0 | 0.00 | 0.00 | 0.00 | 55 | 1005.4 |
| 20260505173409 | 58 | 248 | 0.9 | 0.0 | 0.00 | 0.00 | 0.00 | 55 | 1005.4 |
| 20260505173208 | 58 | 270 | 0.9 | 0.0 | 0.00 | 0.00 | 0.00 | 56 | 1005.4 |
| 20260505172908 | 58 | 248 | 0.9 | 0.0 | 0.00 | 0.00 | 0.00 | 56 | 1005.3 |
| 20260505172706 | 58 | 248 | 0.9 | 0.0 | 0.00 | 0.00 | 0.00 | 56 | 1005.4 |
| 20260505172508 | 58 | 248 | 0.9 | 0.0 | 0.00 | 0.00 | 0.00 | 56 | 1005.4 |
| 20260505172311 | 59 | 248 | 1.7 | 0.0 | 0.00 | 0.00 | 0.00 | 56 | 1005.4 |
| 20260505172108 | 59 | 248 | 2.6 | 0.0 | 0.00 | 0.00 | 0.00 | 56 | 1005.4 |
| 20260505171908 | 59 | 248 | 0.9 | 0.0 | 0.00 | 0.00 | 0.00 | 54 | 1005.4 |
| 20260505171708 | 59 | 270 | 0.0 | 0.0 | 0.00 | 0.00 | 0.00 | 54 | 1005.4 |
| 20260505171407 | 59 | 248 | 2.6 | 0.0 | 0.00 | 0.00 | 0.00 | 55 | 1005.4 |
| 20260505171210 | 59 | 248 | 1.7 | 0.0 | 0.00 | 0.00 | 0.00 | 53 | 1005.4 |
| 20260505171008 | 59 | 248 | 0.0 | 0.0 | 0.00 | 0.00 | 0.00 | 54 | 1005.3 |
| 20260505170808 | 59 | 248 | 0.0 | 0.0 | 0.00 | 0.00 | 0.00 | 54 | 1005.4 |
| 20260505170611 | 59 | 292 | 0.0 | 0.0 | 0.00 | 0.00 | 0.00 | 54 | 1005.4 |
| 20260505170411 | 59 | 292 | 0.0 | 0.0 | 0.00 | 0.00 | 0.00 | 53 | 1005.4 |
| 20260505170210 | 60 | 270 | 0.0 | 0.0 | 0.00 | 0.00 | 0.00 | 53 | 1005.3 |
| 20260505165928 | 60 | 248 | 0.0 | 0.0 | 0.00 | 0.00 | 0.00 | 52 | 1005.4 |
| 20260505165608 | 60 | 248 | 0.0 | 0.0 | 0.00 | 0.00 | 0.00 | 52 | 1005.4 |
| 20260505165407 | 60 | 270 | 2.6 | 0.0 | 0.00 | 0.00 | 0.00 | 51 | 1005.3 |
| 20260505165213 | 60 | 248 | 0.0 | 0.0 | 0.00 | 0.00 | 0.00 | 51 | 1005.3 |
| 20260505165007 | 60 | 292 | 0.0 | 0.0 | 0.00 | 0.00 | 0.00 | 51 | 1005.4 |
| 20260505164811 | 61 | 270 | 0.0 | 0.0 | 0.00 | 0.00 | 0.00 | 49 | 1005.4 |
| 20260505164610 | 61 | 248 | 0.0 | 0.0 | 0.00 | 0.00 | 0.00 | 48 | 1005.4 |
| 20260505164406 | 61 | 248 | 0.0 | 0.0 | 0.00 | 0.00 | 0.00 | 48 | 1005.4 |
| 20260505164206 | 62 | 292 | 0.0 | 0.0 | 0.00 | 0.00 | 0.00 | 46 | 1005.4 |
| 20260505164006 | 62 | 292 | 0.0 | 0.0 | 0.00 | 0.00 | 0.00 | 46 | 1005.4 |
| 20260505163807 | 63 | 292 | 0.0 | 0.0 | 0.00 | 0.00 | 0.00 | 45 | 1005.4 |
| 20260505163611 | 63 | 248 | 0.0 | 0.0 | 0.00 | 0.00 | 0.00 | 45 | 1005.3 |
| 20260505163411 | 63 | 338 | 0.0 | 0.0 | 0.00 | 0.00 | 0.00 | 42 | 1005.4 |
| 20260505163208 | 64 | 292 | 0.0 | 0.0 | 0.00 | 0.00 | 0.00 | 42 | 1005.4 |
| 20260505163011 | 64 | 248 | 0.0 | 0.0 | 0.00 | 0.00 | 0.00 | 42 | 1005.5 |
| 20260505162805 | 64 | 248 | 0.0 | 0.0 | 0.00 | 0.00 | 0.00 | 42 | 1005.4 |
| 20260505162706 | 64 | 248 | 0.0 | 0.0 | 0.00 | 0.00 | 0.00 | 42 | 1005.4 |
| 20260505162507 | 64 | 248 | 0.0 | 0.0 | 0.00 | 0.00 | 0.00 | 42 | 1005.5 |
| 20260505162311 | 65 | 248 | 1.7 | 0.0 | 0.00 | 0.00 | 0.00 | 41 | 1005.5 |
| 20260505162112 | 22 | 248 | 0.0 | 0.0 | 0.00 | 0.00 | 0.00 | 41 | 1005.4 |
| 20260505161907 | 66 | 248 | 0.0 | 0.0 | 0.00 | 0.00 | 0.00 | 40 | 1005.5 |
| 20260505161708 | 67 | 248 | 0.0 | 0.0 | 0.00 | 0.00 | 0.00 | 37 | 1005.4 |
| 20260505161510 | 67 | 202 | 0.0 | 0.0 | 0.00 | 0.00 | 0.00 | 37 | 1005.3 |
| 20260505161407 | 67 | 202 | 0.0 | 0.0 | 0.00 | 0.00 | 0.00 | 37 | 1005.3 |
| 20260505161207 | 67 | 202 | 0.0 | 0.0 | 0.00 | 0.00 | 0.00 | 36 | 1005.4 |
| 20260505161007 | 68 | 202 | 0.0 | 0.0 | 0.00 | 0.00 | 0.00 | 36 | 1005.5 |
| 20260505160807 | 69 | 0 | 0.0 | 0.0 | 0.00 | 0.00 | 0.00 | 35 | 1005.4 |
| 20260505160610 | 69 | 90 | 0.0 | 0.0 | 0.00 | 0.00 | 0.00 | 35 | 1005.4 |
| 20260505160411 | 69 | 338 | 0.0 | 0.0 | 0.00 | 0.00 | 0.00 | 35 | 1005.5 |
| 20260505160212 | 69 | 338 | 0.0 | 0.0 | 0.00 | 0.00 | 0.00 | 34 | 1005.5 |
| 20260505153208 | 69 | 315 | 4.3 | 0.0 | 0.00 | 0.00 | 0.00 | 36 | 1005.4 |
| 20260505153007 | 69 | 135 | 5.2 | 0.0 | 0.00 | 0.00 | 0.00 | 36 | 1005.4 |
| 20260505152808 | 68 | 135 | 5.2 | 0.0 | 0.00 | 0.00 | 0.00 | 36 | 1005.6 |
| 20260505152607 | 68 | 248 | 0.0 | 0.0 | 0.00 | 0.00 | 0.00 | 37 | 1005.6 |
| 20260505152408 | 68 | 248 | 0.0 | 0.0 | 0.00 | 0.00 | 0.00 | 37 | 1005.5 |
| 20260505152208 | 68 | 158 | 0.0 | 0.0 | 0.00 | 0.00 | 0.00 | 37 | 1005.5 |
| 20260505151908 | 68 | 0 | 0.0 | 0.0 | 0.00 | 0.00 | 0.00 | 37 | 1005.6 |
| 20260505151708 | 68 | 0 | 0.0 | 0.0 | 0.00 | 0.00 | 0.00 | 37 | 1005.5 |
| 20260505151510 | 68 | 112 | 0.9 | 0.0 | 0.00 | 0.00 | 0.00 | 37 | 1005.5 |
| 20260505151308 | 67 | 112 | 0.9 | 0.0 | 0.00 | 0.00 | 0.00 | 37 | 1005.4 |
| 20260505151107 | 67 | 225 | 7.0 | 0.0 | 0.00 | 0.00 | 0.00 | 37 | 1005.4 |
| 20260505150908 | 68 | 135 | 2.6 | 0.0 | 0.00 | 0.00 | 0.00 | 37 | 1005.4 |
| 20260505150707 | 68 | 248 | 2.6 | 0.0 | 0.00 | 0.00 | 0.00 | 37 | 1005.5 |
| 20260505150515 | 68 | 248 | 2.6 | 0.0 | 0.00 | 0.00 | 0.00 | 36 | 1005.5 |
| 20260505150309 | 69 | 202 | 0.0 | 0.0 | 0.00 | 0.00 | 0.00 | 36 | 1005.5 |
| 20260505150111 | 69 | 270 | 0.0 | 0.0 | 0.00 | 0.00 | 0.00 | 36 | 1005.7 |
| 20260505140608 | 70 | 158 | 0.0 | 0.0 | 0.00 | 0.00 | 0.00 | 35 | 1005.5 |
| 20260505140408 | 70 | 292 | 5.2 | 0.0 | 0.00 | 0.00 | 0.00 | 35 | 1005.5 |
| 20260505140210 | 70 | 292 | 5.2 | 0.0 | 0.00 | 0.00 | 0.00 | 35 | 1005.4 |
| 20260505130240 | 69 | 292 | 0.0 | 0.0 | 0.00 | 0.00 | 0.00 | 34 | 1005.5 |
| 20260505125010 | 71 | 292 | 1.7 | 0.0 | 0.00 | 0.00 | 0.00 | 33 | 1005.4 |
| 20260505124812 | 71 | 292 | 1.7 | 0.0 | 0.00 | 0.00 | 0.00 | 33 | 1005.5 |
| 20260505124411 | 71 | 248 | 4.3 | 0.0 | 0.00 | 0.00 | 0.00 | 33 | 1005.5 |
| 20260505124208 | 71 | 248 | 3.5 | 0.0 | 0.00 | 0.00 | 0.00 | 32 | 1005.4 |
| 20260505124009 | 71 | 248 | 2.6 | 0.0 | 0.00 | 0.00 | 0.00 | 32 | 1005.5 |
| 20260505123811 | 72 | 248 | 4.3 | 0.0 | 0.00 | 0.00 | 0.00 | 32 | 1005.4 |
| 20260505123608 | 72 | 270 | 0.0 | 0.0 | 0.00 | 0.00 | 0.00 | 32 | 1005.4 |
| 20260505123421 | 72 | 248 | 0.0 | 0.0 | 0.00 | 0.00 | 0.00 | 32 | 1005.4 |
| 20260505123209 | 72 | 158 | 0.0 | 0.0 | 0.00 | 0.00 | 0.00 | 32 | 1005.5 |
| 20260505123015 | 72 | 315 | 0.0 | 0.0 | 0.00 | 0.00 | 0.00 | 32 | 1005.5 |
| 20260505122807 | 73 | 315 | 0.0 | 0.0 | 0.00 | 0.00 | 0.00 | 32 | 1005.5 |
| 20260505122611 | 73 | 270 | 0.0 | 0.0 | 0.00 | 0.00 | 0.00 | 32 | 1005.5 |
| 20260505122410 | 73 | 112 | 0.0 | 0.0 | 0.00 | 0.00 | 0.00 | 32 | 1005.5 |
| 20260505122208 | 73 | 270 | 0.0 | 0.0 | 0.00 | 0.00 | 0.00 | 31 | 1005.5 |
| 20260505122012 | 73 | 270 | 0.0 | 0.0 | 0.00 | 0.00 | 0.00 | 31 | 1005.4 |
| 20260505121812 | 73 | 112 | 0.0 | 0.0 | 0.00 | 0.00 | 0.00 | 31 | 1005.5 |
| 20260505121610 | 73 | 112 | 0.0 | 0.0 | 0.00 | 0.00 | 0.00 | 31 | 1005.5 |
| 20260505121415 | 73 | 90 | 1.7 | 0.0 | 0.00 | 0.00 | 0.00 | 31 | 1005.5 |
| 20260505121209 | 73 | 68 | 0.0 | 0.0 | 0.00 | 0.00 | 0.00 | 31 | 1005.4 |
| 20260505121010 | 73 | 45 | 2.6 | 0.0 | 0.00 | 0.00 | 0.00 | 31 | 1005.4 |
| 20260505120813 | 73 | 45 | 0.0 | 0.0 | 0.00 | 0.00 | 0.00 | 31 | 1005.5 |
| 20260505120610 | 73 | 45 | 0.0 | 0.0 | 0.00 | 0.00 | 0.00 | 31 | 1005.6 |
| 20260505120406 | 73 | 270 | 0.0 | 0.0 | 0.00 | 0.00 | 0.00 | 31 | 1005.4 |
| 20260505120210 | 73 | 270 | 0.0 | 0.0 | 0.00 | 0.00 | 0.00 | 31 | 1005.5 |
| 20260505120011 | 73 | 338 | 0.0 | 0.0 | 0.00 | 0.00 | 0.00 | 31 | 1005.5 |
| 20260505115812 | 73 | 90 | 3.5 | 0.0 | 0.00 | 0.00 | 0.00 | 31 | 1005.6 |
| 20260505115613 | 73 | 45 | 0.0 | 0.0 | 0.00 | 0.00 | 0.00 | 30 | 1005.6 |
| 20260505115411 | 73 | 22 | 2.6 | 0.0 | 0.00 | 0.00 | 0.00 | 30 | 1005.7 |
| 20260505115207 | 74 | 45 | 0.0 | 0.0 | 0.00 | 0.00 | 0.00 | 30 | 1005.6 |
| 20260505115111 | 74 | 45 | 0.0 | 0.0 | 0.00 | 0.00 | 0.00 | 30 | 1005.7 |
| 20260505114907 | 74 | 338 | 3.5 | 0.0 | 0.00 | 0.00 | 0.00 | 30 | 1005.7 |
| 20260505114712 | 74 | 315 | 5.2 | 0.0 | 0.00 | 0.00 | 0.00 | 30 | 1005.7 |
| 20260505114510 | 74 | 225 | 49.5 | 0.0 | 0.00 | 0.00 | 0.00 | 31 | 1005.8 |
| 20260505114307 | 73 | 248 | 0.0 | 0.0 | 0.00 | 0.00 | 0.00 | 31 | 1005.8 |
| 20260505114108 | 73 | 338 | 2.6 | 0.0 | 0.00 | 0.00 | 0.00 | 31 | 1006.0 |
| 20260505113912 | 73 | 68 | 0.0 | 0.0 | 0.00 | 0.00 | 0.00 | 31 | 1005.9 |
| 20260505113610 | 73 | 45 | 1.7 | 0.0 | 0.00 | 0.00 | 0.00 | 31 | 1005.9 |
| 20260505113407 | 73 | 292 | 0.0 | 0.0 | 0.00 | 0.00 | 0.00 | 31 | 1005.9 |
| 20260505113211 | 73 | 292 | 0.0 | 0.0 | 0.00 | 0.00 | 0.00 | 31 | 1005.9 |
| 20260505112911 | 72 | 270 | 0.0 | 0.0 | 0.00 | 0.00 | 0.00 | 31 | 1006.1 |
| 20260505112711 | 72 | 292 | 0.0 | 0.0 | 0.00 | 0.00 | 0.00 | 31 | 1006.0 |
| 20260505112513 | 72 | 315 | 1.7 | 0.0 | 0.00 | 0.00 | 0.00 | 31 | 1006.0 |
| 20260505112210 | 72 | 315 | 1.7 | 0.0 | 0.00 | 0.00 | 0.00 | 30 | 1006.1 |
| 20260505112008 | 73 | 315 | 5.2 | 0.0 | 0.00 | 0.00 | 0.00 | 30 | 1006.0 |
| 20260505111810 | 73 | 315 | 5.2 | 0.0 | 0.00 | 0.00 | 0.00 | 30 | 1005.9 |
| 20260505111613 | 73 | 68 | 6.1 | 0.0 | 0.00 | 0.00 | 0.00 | 30 | 1005.9 |
| 20260505111407 | 73 | 68 | 6.1 | 0.0 | 0.00 | 0.00 | 0.00 | 30 | 1006.0 |
| 20260505111208 | 74 | 315 | 3.5 | 0.0 | 0.00 | 0.00 | 0.00 | 29 | 1006.0 |
| 20260505111010 | 74 | 315 | 3.5 | 0.0 | 0.00 | 0.00 | 0.00 | 29 | 1005.9 |
| 20260505110808 | 74 | 315 | 3.5 | 0.0 | 0.00 | 0.00 | 0.00 | 29 | 1005.8 |
| 20260505110610 | 74 | 315 | 9.6 | 0.0 | 0.00 | 0.00 | 0.00 | 29 | 1005.9 |
| 20260505110410 | 74 | 45 | 4.3 | 0.0 | 0.00 | 0.00 | 0.00 | 29 | 1005.9 |
| 20260505110212 | 74 | 45 | 4.3 | 0.0 | 0.00 | 0.00 | 0.00 | 29 | 1005.8 |
| 20260505102106 | 75 | 45 | 0.0 | 0.0 | 0.00 | 0.00 | 0.00 | 28 | 1005.8 |
| 20260505101906 | 75 | 338 | 1.7 | 0.0 | 0.00 | 0.00 | 0.00 | 28 | 1005.9 |
| 20260505101710 | 75 | 338 | 1.7 | 0.0 | 0.00 | 0.00 | 0.00 | 28 | 1005.9 |
| 20260505101510 | 75 | 0 | 3.5 | 0.0 | 0.00 | 0.00 | 0.00 | 28 | 1005.8 |
| 20260505101308 | 75 | 45 | 5.2 | 0.0 | 0.00 | 0.00 | 0.00 | 28 | 1005.8 |
| 20260505101210 | 75 | 45 | 5.2 | 0.0 | 0.00 | 0.00 | 0.00 | 28 | 1005.8 |
| 20260505101011 | 75 | 45 | 5.2 | 0.0 | 0.00 | 0.00 | 0.00 | 28 | 1005.7 |
| 20260505100808 | 75 | 45 | 5.2 | 0.0 | 0.00 | 0.00 | 0.00 | 28 | 1005.8 |
| 20260505100610 | 75 | 45 | 6.1 | 0.0 | 0.00 | 0.00 | 0.00 | 27 | 1005.9 |
| 20260505100407 | 75 | 0 | 3.5 | 0.0 | 0.00 | 0.00 | 0.00 | 27 | 1005.9 |
| 20260505100214 | 77 | 0 | 3.5 | 0.0 | 0.00 | 0.00 | 0.00 | 27 | 1005.6 |
| 20260505095906 | 77 | 68 | 5.2 | 0.0 | 0.00 | 0.00 | 0.00 | 27 | 1005.7 |
| 20260505095805 | 77 | 45 | 2.6 | 0.0 | 0.00 | 0.00 | 0.00 | 27 | 1005.7 |
| 20260505095607 | 77 | 45 | 2.6 | 0.0 | 0.00 | 0.00 | 0.00 | 27 | 1005.7 |
| 20260505095410 | 77 | 45 | 0.9 | 0.0 | 0.00 | 0.00 | 0.00 | 27 | 1005.7 |
| 20260505095210 | 77 | 22 | 3.5 | 0.0 | 0.00 | 0.00 | 0.00 | 27 | 1005.6 |
| 20260505095010 | 77 | 22 | 5.2 | 0.0 | 0.00 | 0.00 | 0.00 | 26 | 1005.7 |
| 20260505094808 | 77 | 22 | 5.2 | 0.0 | 0.00 | 0.00 | 0.00 | 26 | 1005.6 |
| 20260505094610 | 77 | 68 | 9.6 | 0.0 | 0.00 | 0.00 | 0.00 | 27 | 1005.6 |
| 20260505094407 | 77 | 68 | 5.2 | 0.0 | 0.00 | 0.00 | 0.00 | 27 | 1005.5 |
| 20260505094212 | 76 | 0 | 1.7 | 0.0 | 0.00 | 0.00 | 0.00 | 27 | 1005.5 |
| 20260505094008 | 76 | 135 | 0.0 | 0.0 | 0.00 | 0.00 | 0.00 | 27 | 1005.7 |
| 20260505093807 | 76 | 45 | 5.2 | 0.0 | 0.00 | 0.00 | 0.00 | 27 | 1005.7 |
| 20260505093607 | 76 | 90 | 0.0 | 0.0 | 0.00 | 0.00 | 0.00 | 27 | 1005.7 |
| 20260505093409 | 76 | 90 | 0.0 | 0.0 | 0.00 | 0.00 | 0.00 | 27 | 1005.7 |
| 20260505093212 | 76 | 90 | 0.0 | 0.0 | 0.00 | 0.00 | 0.00 | 27 | 1005.7 |
| 20260505093008 | 76 | 90 | 0.0 | 0.0 | 0.00 | 0.00 | 0.00 | 26 | 1005.5 |
| 20260505092915 | 76 | 90 | 0.0 | 0.0 | 0.00 | 0.00 | 0.00 | 26 | 1005.6 |
| 20260505092715 | 76 | 22 | 6.1 | 0.0 | 0.00 | 0.00 | 0.00 | 26 | 1005.7 |
| 20260505092507 | 76 | 45 | 5.2 | 0.0 | 0.00 | 0.00 | 0.00 | 26 | 1005.8 |
| 20260505092311 | 76 | 22 | 0.0 | 0.0 | 0.00 | 0.00 | 0.00 | 26 | 1005.8 |
| 20260505092108 | 77 | 22 | 0.0 | 0.0 | 0.00 | 0.00 | 0.00 | 26 | 1005.8 |
| 20260505091908 | 77 | 22 | 0.0 | 0.0 | 0.00 | 0.00 | 0.00 | 27 | 1006.0 |
| 20260505091710 | 77 | 22 | 0.0 | 0.0 | 0.00 | 0.00 | 0.00 | 27 | 1005.8 |
| 20260505091614 | 77 | 22 | 0.0 | 0.0 | 0.00 | 0.00 | 0.00 | 27 | 1005.9 |
| 20260505091408 | 77 | 112 | 3.5 | 0.0 | 0.00 | 0.00 | 0.00 | 27 | 1005.9 |
| 20260505091212 | 77 | 45 | 3.5 | 0.0 | 0.00 | 0.00 | 0.00 | 27 | 1005.9 |
| 20260505091008 | 77 | 45 | 3.5 | 0.0 | 0.00 | 0.00 | 0.00 | 26 | 1006.0 |
| 20260505090813 | 77 | 45 | 3.5 | 0.0 | 0.00 | 0.00 | 0.00 | 27 | 1006.0 |
| 20260505090607 | 76 | 22 | 0.0 | 0.0 | 0.00 | 0.00 | 0.00 | 28 | 1005.9 |
| 20260505090408 | 76 | 22 | 0.0 | 0.0 | 0.00 | 0.00 | 0.00 | 28 | 1005.8 |
| 20260505090207 | 76 | 22 | 0.0 | 0.0 | 0.00 | 0.00 | 0.00 | 28 | 1005.9 |
| 20260505085907 | 76 | 90 | 5.2 | 0.0 | 0.00 | 0.00 | 0.00 | 28 | 1005.9 |
| 20260505085705 | 76 | 112 | 1.7 | 0.0 | 0.00 | 0.00 | 0.00 | 28 | 1005.9 |
| 20260505085507 | 76 | 112 | 1.7 | 0.0 | 0.00 | 0.00 | 0.00 | 28 | 1005.9 |
| 20260505085312 | 76 | 112 | 1.7 | 0.0 | 0.00 | 0.00 | 0.00 | 28 | 1005.8 |
| 20260505085108 | 76 | 68 | 0.9 | 0.0 | 0.00 | 0.00 | 0.00 | 27 | 1005.9 |
| 20260505084907 | 74 | 68 | 0.9 | 0.0 | 0.00 | 0.00 | 0.00 | 28 | 1005.8 |
| 20260505084707 | 74 | 68 | 0.9 | 0.0 | 0.00 | 0.00 | 0.00 | 28 | 1005.8 |
| 20260505084408 | 74 | 68 | 0.9 | 0.0 | 0.00 | 0.00 | 0.00 | 29 | 1005.9 |
| 20260505084208 | 73 | 68 | 0.9 | 0.0 | 0.00 | 0.00 | 0.00 | 28 | 1005.8 |
| 20260505084008 | 73 | 45 | 0.0 | 0.0 | 0.00 | 0.00 | 0.00 | 28 | 1006.0 |
| 20260505083810 | 74 | 45 | 2.6 | 0.0 | 0.00 | 0.00 | 0.00 | 28 | 1006.0 |
| 20260505083608 | 74 | 90 | 0.0 | 0.0 | 0.00 | 0.00 | 0.00 | 28 | 1006.0 |
| 20260505083407 | 74 | 68 | 5.2 | 0.0 | 0.00 | 0.00 | 0.00 | 28 | 1006.0 |
| 20260505083207 | 74 | 45 | 5.2 | 0.0 | 0.00 | 0.00 | 0.00 | 28 | 1006.0 |
| 20260505082911 | 74 | 90 | 1.7 | 0.0 | 0.00 | 0.00 | 0.00 | 28 | 1006.1 |
| 20260505082712 | 74 | 45 | 0.9 | 0.0 | 0.00 | 0.00 | 0.00 | 28 | 1006.1 |
| 20260505082511 | 74 | 68 | 3.5 | 0.0 | 0.00 | 0.00 | 0.00 | 26 | 1006.1 |
| 20260505082310 | 74 | 338 | 0.0 | 0.0 | 0.00 | 0.00 | 0.00 | 26 | 1006.2 |
| 20260505082108 | 74 | 112 | 2.6 | 0.0 | 0.00 | 0.00 | 0.00 | 27 | 1006.2 |
| 20260505081908 | 75 | 68 | 2.6 | 0.0 | 0.00 | 0.00 | 0.00 | 27 | 1006.2 |
| 20260505081707 | 75 | 45 | 5.2 | 0.0 | 0.00 | 0.00 | 0.00 | 27 | 1006.2 |
| 20260505081308 | 75 | 68 | 2.6 | 0.0 | 0.00 | 0.00 | 0.00 | 27 | 1006.3 |
| 20260505081108 | 75 | 45 | 2.6 | 0.0 | 0.00 | 0.00 | 0.00 | 25 | 1006.3 |
| 20260505080912 | 76 | 68 | 3.5 | 0.0 | 0.00 | 0.00 | 0.00 | 25 | 1006.3 |
| 20260505080707 | 76 | 68 | 3.5 | 0.0 | 0.00 | 0.00 | 0.00 | 25 | 1006.4 |
| 20260505080510 | 76 | 90 | 1.7 | 0.0 | 0.00 | 0.00 | 0.00 | 27 | 1006.3 |
| 20260505080308 | 76 | 90 | 1.7 | 0.0 | 0.00 | 0.00 | 0.00 | 27 | 1006.2 |
| 20260505075908 | 75 | 90 | 1.7 | 0.0 | 0.00 | 0.00 | 0.00 | 28 | 1006.3 |
| 20260505075713 | 75 | 90 | 1.7 | 0.0 | 0.00 | 0.00 | 0.00 | 28 | 1006.5 |
| 20260505075507 | 74 | 45 | 6.1 | 0.0 | 0.00 | 0.00 | 0.00 | 27 | 1006.5 |
| 20260505075310 | 75 | 22 | 0.0 | 0.0 | 0.00 | 0.00 | 0.00 | 27 | 1006.3 |
| 20260505075108 | 74 | 22 | 0.0 | 0.0 | 0.00 | 0.00 | 0.00 | 28 | 1006.5 |
| 20260505074910 | 74 | 22 | 0.0 | 0.0 | 0.00 | 0.00 | 0.00 | 28 | 1006.5 |
| 20260505074809 | 74 | 22 | 0.0 | 0.0 | 0.00 | 0.00 | 0.00 | 28 | 1006.5 |
| 20260505074611 | 74 | 22 | 0.0 | 0.0 | 0.00 | 0.00 | 0.00 | 28 | 1006.6 |
| 20260505074411 | 74 | 45 | 6.1 | 0.0 | 0.00 | 0.00 | 0.00 | 28 | 1006.5 |
| 20260505074213 | 74 | 68 | 0.0 | 0.0 | 0.00 | 0.00 | 0.00 | 28 | 1006.6 |
| 20260505074008 | 74 | 68 | 0.0 | 0.0 | 0.00 | 0.00 | 0.00 | 28 | 1006.8 |
| 20260505073810 | 74 | 68 | 6.1 | 0.0 | 0.00 | 0.00 | 0.00 | 28 | 1006.7 |
| 20260505073607 | 74 | 45 | 4.3 | 0.0 | 0.00 | 0.00 | 0.00 | 28 | 1006.7 |
| 20260505073407 | 74 | 45 | 4.3 | 0.0 | 0.00 | 0.00 | 0.00 | 14 | 1006.7 |
| 20260505073213 | 72 | 45 | 4.3 | 0.0 | 0.00 | 0.00 | 0.00 | 29 | 1006.8 |
| 20260505073011 | 72 | 45 | 4.3 | 0.0 | 0.00 | 0.00 | 0.00 | 29 | 1006.8 |
| 20260505072808 | 72 | 112 | 0.0 | 0.0 | 0.00 | 0.00 | 0.00 | 29 | 1006.8 |
| 20260505072609 | 71 | 68 | 7.0 | 0.0 | 0.00 | 0.00 | 0.00 | 29 | 1006.8 |
| 20260505072410 | 71 | 68 | 7.0 | 0.0 | 0.00 | 0.00 | 0.00 | 29 | 1006.9 |
| 20260505072213 | 71 | 22 | 5.2 | 0.0 | 0.00 | 0.00 | 0.00 | 29 | 1007.0 |
| 20260505072008 | 71 | 22 | 5.2 | 0.0 | 0.00 | 0.00 | 0.00 | 30 | 1007.0 |
| 20260505071914 | 70 | 45 | 1.7 | 0.0 | 0.00 | 0.00 | 0.00 | 30 | 1007.0 |
| 20260505071712 | 70 | 45 | 1.7 | 0.0 | 0.00 | 0.00 | 0.00 | 30 | 1007.1 |
| 20260505071509 | 69 | 68 | 3.5 | 0.0 | 0.00 | 0.00 | 0.00 | 31 | 1007.1 |
| 20260505071307 | 68 | 338 | 8.7 | 0.0 | 0.00 | 0.00 | 0.00 | 31 | 1007.1 |
| 20260505071118 | 68 | 338 | 8.7 | 0.0 | 0.00 | 0.00 | 0.00 | 31 | 1007.2 |
| 20260505070908 | 68 | 22 | 3.5 | 0.0 | 0.00 | 0.00 | 0.00 | 33 | 1007.2 |
| 20260505070711 | 67 | 22 | 3.5 | 0.0 | 0.00 | 0.00 | 0.00 | 33 | 1007.3 |
| 20260505070612 | 67 | 292 | 0.0 | 0.0 | 0.00 | 0.00 | 0.00 | 32 | 1007.2 |
| 20260505070412 | 67 | 90 | 4.3 | 0.0 | 0.00 | 0.00 | 0.00 | 32 | 1007.4 |
| 20260505070211 | 69 | 68 | 0.0 | 0.0 | 0.00 | 0.00 | 0.00 | 31 | 1007.4 |
| 20260505070008 | 69 | 22 | 5.2 | 0.0 | 0.00 | 0.00 | 0.00 | 31 | 1007.4 |
| 20260505065806 | 69 | 22 | 5.2 | 0.0 | 0.00 | 0.00 | 0.00 | 31 | 1007.4 |
| 20260505065607 | 69 | 22 | 5.2 | 0.0 | 0.00 | 0.00 | 0.00 | 31 | 1007.4 |
| 20260505065406 | 69 | 22 | 5.2 | 0.0 | 0.00 | 0.00 | 0.00 | 31 | 1007.4 |
| 20260505065215 | 69 | 22 | 5.2 | 0.0 | 0.00 | 0.00 | 0.00 | 30 | 1007.4 |
| 20260505064911 | 70 | 22 | 5.2 | 0.0 | 0.00 | 0.00 | 0.00 | 30 | 1007.5 |
| 20260505064712 | 70 | 45 | 6.1 | 0.0 | 0.00 | 0.00 | 0.00 | 30 | 1007.5 |
| 20260505064407 | 70 | 338 | 2.6 | 0.0 | 0.00 | 0.00 | 0.00 | 31 | 1007.5 |
| 20260505064208 | 69 | 22 | 3.5 | 0.0 | 0.00 | 0.00 | 0.00 | 31 | 1007.5 |
| 20260505064010 | 69 | 45 | 2.6 | 0.0 | 0.00 | 0.00 | 0.00 | 31 | 1007.5 |
| 20260505063810 | 69 | 45 | 2.6 | 0.0 | 0.00 | 0.00 | 0.00 | 31 | 1007.6 |
| 20260505063612 | 69 | 22 | 4.3 | 0.0 | 0.00 | 0.00 | 0.00 | 31 | 1007.6 |
| 20260505063407 | 69 | 68 | 0.9 | 0.0 | 0.00 | 0.00 | 0.00 | 31 | 1007.6 |
| 20260505063209 | 69 | 22 | 4.3 | 0.0 | 0.00 | 0.00 | 0.00 | 31 | 1007.5 |
| 20260505063008 | 69 | 68 | 0.9 | 0.0 | 0.00 | 0.00 | 0.00 | 31 | 1007.6 |
| 20260505062807 | 69 | 45 | 4.3 | 0.0 | 0.00 | 0.00 | 0.00 | 32 | 1007.7 |
| 20260505062608 | 69 | 45 | 4.3 | 0.0 | 0.00 | 0.00 | 0.00 | 32 | 1007.6 |
| 20260505062408 | 68 | 112 | 7.8 | 0.0 | 0.00 | 0.00 | 0.00 | 36 | 1007.4 |
| 20260505062312 | 68 | 0 | 1.7 | 0.0 | 0.00 | 0.00 | 0.00 | 36 | 1007.4 |
| 20260505062110 | 67 | 135 | 0.0 | 0.0 | 0.00 | 0.00 | 0.00 | 38 | 1007.7 |
| 20260505061942 | 67 | 135 | 0.0 | 0.0 | 0.00 | 0.00 | 0.00 | 38 | 1007.7 |
| 20260505061708 | 66 | 90 | 0.0 | 0.0 | 0.00 | 0.00 | 0.00 | 39 | 1007.7 |
| 20260505061508 | 65 | 135 | 0.0 | 0.0 | 0.00 | 0.00 | 0.00 | 39 | 1007.6 |
| 20260505061310 | 64 | 68 | 0.0 | 0.0 | 0.00 | 0.00 | 0.00 | 39 | 1007.8 |
| 20260505061111 | 63 | 90 | 3.5 | 0.0 | 0.00 | 0.00 | 0.00 | 40 | 1007.7 |
| 20260505061012 | 62 | 315 | 0.0 | 0.0 | 0.00 | 0.00 | 0.00 | 39 | 1007.7 |
| 20260505060812 | 62 | 315 | 0.0 | 0.0 | 0.00 | 0.00 | 0.00 | 42 | 1007.7 |
| 20260505060607 | 62 | 270 | 0.0 | 0.0 | 0.00 | 0.00 | 0.00 | 44 | 1007.8 |
| 20260505060407 | 62 | 270 | 0.0 | 0.0 | 0.00 | 0.00 | 0.00 | 44 | 1008.0 |
| 20260505060207 | 62 | 270 | 0.0 | 0.0 | 0.00 | 0.00 | 0.00 | 43 | 1007.8 |
| 20260505060010 | 63 | 292 | 0.0 | 0.0 | 0.00 | 0.00 | 0.00 | 42 | 1007.8 |
| 20260505055810 | 63 | 292 | 0.0 | 0.0 | 0.00 | 0.00 | 0.00 | 43 | 1007.8 |
| 20260505055609 | 63 | 292 | 0.0 | 0.0 | 0.00 | 0.00 | 0.00 | 43 | 1007.8 |
| 20260505055307 | 63 | 0 | 0.0 | 0.0 | 0.00 | 0.00 | 0.00 | 42 | 1007.8 |
| 20260505055108 | 63 | 338 | 86.9 | 0.0 | 0.00 | 0.00 | 0.00 | 45 | 1007.8 |
| 20260505054911 | 62 | 112 | 0.9 | 0.0 | 0.00 | 0.00 | 0.00 | 45 | 1007.8 |
| 20260505054711 | 60 | 112 | 0.0 | 0.0 | 0.00 | 0.00 | 0.00 | 45 | 1007.8 |
| 20260505054513 | 60 | 292 | 0.9 | 0.0 | 0.00 | 0.00 | 0.00 | 52 | 1007.8 |
| 20260505054307 | 59 | 292 | 0.0 | 0.0 | 0.00 | 0.00 | 0.00 | 52 | 1007.8 |
| 20260505054210 | 59 | 292 | 0.0 | 0.0 | 0.00 | 0.00 | 0.00 | 52 | 1007.8 |
| 20260505054007 | 58 | 292 | 0.0 | 0.0 | 0.00 | 0.00 | 0.00 | 53 | 1007.8 |
| 20260505053810 | 58 | 248 | 0.0 | 0.0 | 0.00 | 0.00 | 0.00 | 53 | 1007.8 |
| 20260505053612 | 58 | 248 | 0.0 | 0.0 | 0.00 | 0.00 | 0.00 | 53 | 1007.7 |
| 20260505053409 | 58 | 248 | 0.0 | 0.0 | 0.00 | 0.00 | 0.00 | 53 | 1007.7 |
| 20260505053211 | 58 | 292 | 0.0 | 0.0 | 0.00 | 0.00 | 0.00 | 53 | 1007.7 |
| 20260505053008 | 57 | 338 | 86.9 | 0.0 | 0.00 | 0.00 | 0.00 | 53 | 1007.7 |
| 20260505052810 | 56 | 292 | 0.0 | 0.0 | 0.00 | 0.00 | 0.00 | 53 | 1007.7 |
| 20260505052609 | 56 | 270 | 0.0 | 0.0 | 0.00 | 0.00 | 0.00 | 51 | 1007.8 |
| 20260505052408 | 56 | 270 | 0.0 | 0.0 | 0.00 | 0.00 | 0.00 | 51 | 1007.8 |
| 20260505052206 | 56 | 270 | 0.0 | 0.0 | 0.00 | 0.00 | 0.00 | 51 | 1007.8 |
| 20260505052010 | 56 | 270 | 0.0 | 0.0 | 0.00 | 0.00 | 0.00 | 51 | 1007.8 |
| 20260505051811 | 56 | 270 | 0.0 | 0.0 | 0.00 | 0.00 | 0.00 | 51 | 1007.8 |
| 20260505051612 | 56 | 292 | 0.0 | 0.0 | 0.00 | 0.00 | 0.00 | 50 | 1007.8 |
| 20260505051416 | 56 | 338 | 0.0 | 0.0 | 0.00 | 0.00 | 0.00 | 50 | 1007.8 |
| 20260505051207 | 56 | 248 | 0.0 | 0.0 | 0.00 | 0.00 | 0.00 | 50 | 1007.8 |
| 20260505051016 | 56 | 270 | 0.0 | 0.0 | 0.00 | 0.00 | 0.00 | 50 | 1007.8 |
| 20260505050810 | 56 | 270 | 0.0 | 0.0 | 0.00 | 0.00 | 0.00 | 50 | 1007.8 |
| 20260505050612 | 56 | 225 | 0.0 | 0.0 | 0.00 | 0.00 | 0.00 | 47 | 1007.9 |
| 20260505050407 | 55 | 315 | 1.7 | 0.0 | 0.00 | 0.00 | 0.00 | 50 | 1007.8 |
| 20260505050215 | 55 | 248 | 0.0 | 0.0 | 0.00 | 0.00 | 0.00 | 50 | 1007.8 |
| 20260505041712 | 58 | 270 | 6.1 | 0.0 | 0.00 | 0.00 | 0.00 | 39 | 1008.4 |
| 20260505041510 | 58 | 248 | 4.3 | 0.0 | 0.00 | 0.00 | 0.00 | 39 | 1008.4 |
| 20260505041307 | 58 | 270 | 3.5 | 0.0 | 0.00 | 0.00 | 0.00 | 38 | 1008.3 |
| 20260505041112 | 58 | 248 | 1.7 | 0.0 | 0.00 | 0.00 | 0.00 | 39 | 1008.3 |
| 20260505040910 | 58 | 248 | 4.3 | 0.0 | 0.00 | 0.00 | 0.00 | 39 | 1008.4 |
| 20260505040708 | 58 | 248 | 9.6 | 0.0 | 0.00 | 0.00 | 0.00 | 38 | 1008.3 |
| 20260505040508 | 58 | 248 | 13.9 | 0.0 | 0.00 | 0.00 | 0.00 | 39 | 1008.3 |